{"data":{"norad_id":59905,"epoch":"2026-09-21T21:28:34.533696Z","epoch_age_seconds":54064,"freshness":"FRESH","line1":"1 59905U 24100W   26264.89484414  .00000291  00000+0  20082-4 0  9994","line2":"2 59905  43.0026  93.8986 0000981 276.7409  83.3331 15.27574054131197","mean_motion":15.27574054,"eccentricity":9.81e-5,"inclination_deg":43.0026,"raan_deg":93.8986,"arg_perigee_deg":276.7409,"mean_anomaly_deg":83.3331,"bstar":2.0082e-5,"rev_number":13119,"period_min":94.26711564191,"perigee_km":482.39381645782,"apogee_km":483.73998466311,"semimajor_km":6861.2039005605,"source":"CELESTRAK","updated_at":"2026-09-22T09:00:49.109761Z"}}